Location: Franzen
(48.6167°N, 15.3833°E)
Time: 12:58:44
(UTC+00:00)

Cosmos 1655 Rocket - Pass Details

Date: 30 July 2021
Orbit: 969 x 1007 km, 82.9° (Epoch: 25 September)

Event Time Altitude Azimuth Distance (km) Brightness Sun altitude
Exits shadow 19:11:42 - 111° (ESE) 3,206 6.1 -5.4°
Reaches altitude 10° 19:14:16 10° 91° (E) 2,778 5.9 -5.7°
Maximum altitude 19:16:10 11° 73° (ENE) 2,677 6.0 -6.0°
Drops below altitude 10° 19:18:04 10° 56° (NE) 2,788 6.2 -6.2°
Sets 19:22:42 0° 25° (NNE) 3,749 7.2 -6.9°
